Regional Weather Roundup
Issued by NWS

Home | Current Version | Previous Version | Text Only | Print | Product List | Glossary Off
Versions: 1 2 3 4 5 6 7 8 9 10 11 12 13 14 15 16 17 18 19 20 21 22 23 24 25 26 27 28 29 30 31 32 33 34 35 36 37 38 39 40 41 42 43 44 45 46 47 48 49 50

000
ASUS43 KMPX 202010
RWRMN
WEATHER ROUNDUP FOR MINNESOTA
NATIONAL WEATHER SERVICE TWIN CITIES/CHANHASSEN MN
300 PM CDT MON OCT 20 2014


NOTE: "FAIR" INDICATES FEW OR NO CLOUDS BELOW 12,000 FEET WITH NO
SIGNIFICANT WEATHER AND/OR OBSTRUCTIONS TO VISIBILITY. N/A MEANS
CURRENT SKY AND/OR WEATHER CONDITIONS ARE NOT AVAILABLE.

MNZ060>063-068>070-202100-
   Twin Cities Metro

CITY           SKY/WX    TMP DP  RH WIND       PRES   REMARKS
TWIN CITIES    SUNNY     63  42  46 NW13      29.97F
ST PAUL        SUNNY     62  42  47 N15       29.98S
CRYSTAL        SUNNY     64  41  42 N13       29.97F
BLAINE         SUNNY     63  43  48 N13G18    29.98
LAKEVILLE      SUNNY     63  43  48 W13G18    29.97F
EDEN PRAIRIE   SUNNY     64  42  44 N13       29.97S
SOUTH ST PAUL  SUNNY     63  41  43 N12       29.97S
LAKE ELMO      FAIR      61  43  51 N7        29.98S
$$
MNZ001>005-007-008-013>017-022>024-027-028-202100-
   Northwest Minnesota

CITY           SKY/WX    TMP DP  RH WIND       PRES   REMARKS
BEMIDJI        SUNNY     51  39  62 N8        30.03F
HALLOCK        SUNNY     54  43  66 CALM      30.04F
ROSEAU         SUNNY     52  39  62 CALM      30.05F
WARROAD        SUNNY     48  39  71 E7        30.06S
THIEF RVR FALL SUNNY     52  39  62 NW3       30.05F
CROOKSTON      SUNNY     55  43  62 N6        30.05F
FOSSTON        SUNNY     57  37  47 N7        30.05S
DETROIT LAKES  SUNNY     59  41  51 NW8       30.04S
MOORHEAD       SUNNY     63  43  48 N7        30.04F
PARK RAPIDS    SUNNY     58  36  43 N6        30.01F
MAHNOMEN       FAIR      57  39  50 N9        30.04S
$$
MNZ006-009>011-018-025>026-202100-
   North Central Minnesota

CITY           SKY/WX    TMP DP  RH WIND       PRES   REMARKS
BAUDETTE       CLOUDY    48  37  65 N5        30.06S
FLAG ISLAND    SUNNY     46  36  66 NE3       30.04F
INTL FALLS     CLOUDY    48  37  65 NW9       30.04S
WASKISH        CLOUDY    48  41  76 CALM      30.05S
BIG FORK       CLOUDY    46  37  71 NW7       30.04S
LONGVILLE      MOSUNNY   54  39  58 NW5       30.02S
GRAND RAPIDS   CLOUDY    46  37  71 N10       30.03S
CRANE LAKE     CLOUDY    46  37  71 N5        30.04S
ORR            CLOUDY    46  34  61 NW6       30.01R
COOK           CLOUDY    46  37  71 N6        30.02S
WALKER         FAIR      54  38  55 NW6       30.02S
$$
MNZ012-019>021-037-202100-
   Northeast Minnesota

CITY           SKY/WX    TMP DP  RH WIND       PRES   REMARKS
DULUTH         CLOUDY    49  39  68 N9        29.99S
ELY            CLOUDY    46  37  71 N8        30.00S
HIBBING        CLOUDY    48  37  65 N9        30.02R
EVELETH        PTSUNNY   45  36  70 NW8       30.02S
DULUTH HARBOR  CLOUDY    52  43  71 NW7       30.01S
TWO HARBORS    CLOUDY    54  30  40 NW6       29.98R
SILVER BAY     MOSUNNY   52  37  58 NW5       29.97S
GRAND MARAIS     N/A     53  38  56 N7        29.97R
G MARAIS ARPRT CLOUDY    46  36  66 N10G17    29.97R
$$
MNZ029>031-032-039>041-046>048-054>057-064-202100-
   West Central Minnesota

CITY           SKY/WX    TMP DP  RH WIND       PRES   REMARKS
FERGUS FALLS   SUNNY     63  37  39 NW8G17    30.03F
WHEATON        SUNNY     64  39  39 NW12      30.04F
MORRIS         SUNNY     66  41  39 NW13G18   30.01F
ALEXANDRIA     SUNNY     63  37  38 N13       30.02F
ELBOW LAKE     FAIR      62  41  45 N12       30.02F
WADENA         SUNNY     61  39  44 NW12      30.01S
GLENWOOD       SUNNY     64  39  39 W14       30.02F
APPLETON       SUNNY     68  37  32 NW7G17    30.02S
BENSON         SUNNY     66  39  37 N10G16    30.02S
ORTONVILLE     SUNNY     66  39  37 NW8       30.02F
MADISON        SUNNY     70  39  32 NW12      30.02F
WILLMAR        FAIR      66  37  34 N12G18    30.02F
$$
MNZ033>034-036-042>043-049>051-058-059-202100-
   Central Minnesota

CITY           SKY/WX    TMP DP  RH WIND       PRES   REMARKS
ST CLOUD       SUNNY     65  40  39 NW9G20    29.99F
SAUK CENTRE    FAIR      62  38  41 NW13      30.01S
PAYNESVILLE    SUNNY     62  37  40 W12G20    30.00F
AITKIN         SUNNY     59  39  47 N8        30.00S
PINE RIVER     SUNNY     55  41  58 NW7       30.04F
BRAINERD       SUNNY     56  40  55 N8        30.01F
STAPLES        SUNNY     59  36  41 NW3       30.01S
LONG PRAIRIE   FAIR      61  37  41 NW10      30.02R
LITTLE FALLS   SUNNY     61  36  39 NW7       30.00F
LITCHFIELD     SUNNY     64  37  36 NW13G21   30.00F
BUFFALO        SUNNY     62  40  43 NW12      30.00S
MAPLE LAKE     SUNNY     63  43  48 NW7       30.00S
$$
MNZ037-044-045-052-053-202100-
   East Central Minnesota

CITY           SKY/WX    TMP DP  RH WIND       PRES   REMARKS
PRINCETON      SUNNY     63  45  51 N9        29.99S
MORA           SUNNY     55  39  54 NW10      30.01S
CAMBRIDGE      SUNNY     61  43  51 NW12      29.97S
RUSH CITY      SUNNY     58  41  53 N6        29.99S
MOOSE LAKE     CLOUDY    50  37  62 N9        29.99S
HINCKLEY       MOCLDY    55  41  58 N5        30.00S
CLOQUET        CLOUDY    52  37  58 NW12      30.00S
MCGREGOR       MOSUNNY   52  41  66 N12       30.02S
$$
MNZ071>073-080-081-089-090-097-098-202100-
   Southwest Minnesota

CITY           SKY/WX    TMP DP  RH WIND       PRES   REMARKS
MONTEVIDEO     SUNNY     70  41  35 N15       30.03S
GRANITE FALLS  SUNNY     67  41  38 NW14      30.03F
CANBY          SUNNY     68  39  34 N10G17    30.04F
MARSHALL       SUNNY     68  37  32 N14       30.02S
REDWOOD FALLS  SUNNY     68  39  34 N13G21    30.02S
OLIVIA         SUNNY     68  41  37 NW14      30.01S
PIPESTONE      SUNNY     68  34  28 N8G18     30.04F
WINDOM         SUNNY     68  37  32 NW13G20   30.03S
WORTHINGTON    SUNNY     66  37  34 NW12G18   30.04F
JACKSON        SUNNY     68  34  28 NW15      30.03S
TRACY          SUNNY     69  39  33 NW10G16   30.03F
SLAYTON        SUNNY     67  34  29 NW14      30.04S
$$
MNZ065>067-074>077-082>085-091>093-202100-
   South Central Minnesota

CITY           SKY/WX    TMP DP  RH WIND       PRES   REMARKS
MANKATO        SUNNY     64  39  39 NW20      29.99S
NEW ULM        SUNNY     66  43  42 NW16G24   30.00S
ST JAMES       SUNNY     68  37  32 NW14G20   30.02S
FAIRMONT       SUNNY     68  37  32 N18       30.01S
GLENCOE        SUNNY     65  43  44 NW10G16   29.98F
FARIBAULT      SUNNY     64  39  39 N13       29.98S
OWATONNA       SUNNY     64  41  42 NW16      29.98S
WASECA         SUNNY     63  36  36 NW12G18   30.00S
ALBERT LEA     SUNNY     64  39  39 NW10G18   29.98S
$$
MNZ078>079-086>088-094>096-202100-
   Southeast Minnesota

CITY           SKY/WX    TMP DP  RH WIND       PRES   REMARKS
ROCHESTER      SUNNY     63  41  44 NW13G24   29.97S
RED WING       SUNNY     63  39  42 N10G18    29.96S
STANTON        SUNNY     64  42  45 NW13      29.96S
DODGE CENTER   SUNNY     63  43  48 N16G22    29.97S
WINONA         SUNNY     63  41  45 NW12      29.94S
AUSTIN         SUNNY     63  43  48 NW14G21   29.97S
PRESTON        SUNNY     60  42  52 N10G16    29.96R
$$
ABBREVIATIONS USED IN REMARKS
   TC - TEMPERATURES IN CELSIUS
  WCI - WIND CHILL INDEX
   HX - HEAT INDEX
  VSB - VISIBILITY
$$


USA.gov is the U.S. government's official web portal to all federal, state and local government web resources and services.